Location: El Chorro
(10.0985°N, 67.3542°W)
Time: 18:58:11
(UTC+00:00)

Cosmos 2297 - Pass Details

Date: 15 November 2025
Orbit: 836 x 856 km, 71.0° (Epoch: 06 December)

Event Time Altitude Azimuth Distance (km) Brightness Sun altitude
Rises 23:22:34 0° 195° (SSW) 3,418 7.3 -19.3°
Reaches altitude 10° 23:25:01 10° 195° (SSW) 2,481 6.5 -19.9°
Maximum altitude 23:30:43 89° 108° (ESE) 857 3.6 -21.2°
Enters shadow 23:34:13 25° 16° (NNE) 1,661 4.9 -22.1°
